Location: Pordenone
(45.9640°N, 12.6580°E)
Time: 16:40:34
(UTC+02:00)

ISS - Pass Details

Date: 15 May 2021
Orbit: 417 x 422 km, 51.6° (Epoch: 18 June)

Event Time Altitude Azimuth Distance (km) Brightness Sun altitude
Rises 00:24:44 0° 271° (W) 2,365 0.2 -24.5°
Reaches altitude 10° 00:26:56 10° 280° (W) 1,503 -0.7 -24.6°
Maximum altitude 00:30:04 35° 349° (NNW) 704 -2.1 -24.7°
Drops below altitude 10° 00:33:13 10° 57° (ENE) 1,508 -0.7 -24.8°
Sets 00:35:27 0° 66° (ENE) 2,375 0.3 -24.8°
